Time,TemperatureF,DewpointF,PressureIn,WindDirection,WindDirectionDegrees,WindSpeedMPH,WindSpeedGustMPH,Humidity,HourlyPrecipIn,Conditions,Clouds,dailyrainin,SolarRadiationWatts/m^2,SoftwareType,DateUTC
2013-02-25 00:00:00,39.6,34.6,30.24,WNW,298,0.0,0.0,82,0.00,,,0.00,0.0,WeatherDisplay:10.37,2013-02-25 08:00:00,
2013-02-25 00:05:00,39.7,34.7,30.24,WNW,298,1.2,0.0,82,0.00,,,0.00,0.0,WeatherDisplay:10.37,2013-02-25 08:05:00,
2013-02-25 00:10:00,39.6,34.6,30.25,WNW,298,1.2,1.2,82,0.00,,,0.00,0.0,WeatherDisplay:10.37,2013-02-25 08:10:00,
2013-02-25 00:15:00,39.8,34.8,30.25,WNW,298,1.2,1.2,82,0.00,,,0.00,0.0,WeatherDisplay:10.37,2013-02-25 08:15:00,
2013-02-25 00:20:00,40.1,35.0,30.25,WNW,298,2.3,2.3,82,0.00,CLR,,0.00,0.0,WeatherDisplay:10.37,2013-02-25 08:20:00,
2013-02-25 00:25:00,40.2,35.1,30.25,WNW,298,0.0,0.0,82,0.00,,,0.00,0.0,WeatherDisplay:10.37,2013-02-25 08:25:00,
2013-02-25 00:30:00,40.1,34.7,30.25,WNW,298,0.0,0.0,81,0.00,,,0.00,0.0,WeatherDisplay:10.37,2013-02-25 08:30:00,
2013-02-25 00:35:00,39.8,34.4,30.25,WNW,298,0.0,0.0,81,0.00,,,0.00,0.0,WeatherDisplay:10.37,2013-02-25 08:35:00,
2013-02-25 00:40:00,39.6,34.2,30.25,WNW,298,0.0,0.0,81,0.00,,,0.00,0.0,WeatherDisplay:10.37,2013-02-25 08:40:00,
2013-02-25 00:45:00,39.4,34.1,30.25,WNW,298,0.0,0.0,81,0.00,,,0.00,0.0,WeatherDisplay:10.37,2013-02-25 08:45:00,
2013-02-25 00:50:00,39.1,33.8,30.25,WNW,298,0.0,0.0,81,0.00,CLR,,0.00,0.0,WeatherDisplay:10.37,2013-02-25 08:50:00,
2013-02-25 00:55:00,38.9,33.6,30.26,WNW,298,0.0,0.0,81,0.00,,,0.00,0.0,WeatherDisplay:10.37,2013-02-25 08:55:00,
2013-02-25 01:00:00,38.6,33.3,30.26,WNW,298,0.0,0.0,81,0.00,,,0.00,0.0,WeatherDisplay:10.37,2013-02-25 09:00:00,
2013-02-25 01:05:00,38.4,33.1,30.26,WNW,298,0.0,0.0,81,0.00,,,0.00,0.0,WeatherDisplay:10.37,2013-02-25 09:05:00,
2013-02-25 01:10:00,38.2,32.9,30.26,WNW,298,0.0,0.0,81,0.00,,,0.00,0.0,WeatherDisplay:10.37,2013-02-25 09:10:00,
2013-02-25 01:15:00,38.1,33.1,30.26,WNW,298,0.0,0.0,82,0.00,CLR,,0.00,0.0,WeatherDisplay:10.37,2013-02-25 09:15:00,
2013-02-25 01:20:00,38.0,33.0,30.26,WNW,298,0.0,0.0,82,0.00,,,0.00,0.0,WeatherDisplay:10.37,2013-02-25 09:20:00,
2013-02-25 01:25:00,37.9,32.9,30.25,WNW,298,0.0,0.0,82,0.00,,,0.00,0.0,WeatherDisplay:10.37,2013-02-25 09:25:00,
2013-02-25 01:30:00,37.7,32.7,30.25,WNW,298,0.0,0.0,82,0.00,CLR,,0.00,0.0,WeatherDisplay:10.37,2013-02-25 09:30:00,
2013-02-25 01:35:00,37.7,32.7,30.26,WNW,298,0.0,0.0,82,0.00,,,0.00,0.0,WeatherDisplay:10.37,2013-02-25 09:35:00,
2013-02-25 01:40:00,37.7,33.0,30.26,WNW,298,0.0,0.0,83,0.00,,,0.00,0.0,WeatherDisplay:10.37,2013-02-25 09:40:00,
2013-02-25 01:45:00,37.6,32.9,30.26,WNW,298,0.0,0.0,83,0.00,,,0.00,0.0,WeatherDisplay:10.37,2013-02-25 09:45:00,
2013-02-25 01:50:00,37.4,32.7,30.25,WNW,298,0.0,0.0,83,0.00,,,0.00,0.0,WeatherDisplay:10.37,2013-02-25 09:50:00,
2013-02-25 01:55:00,37.3,32.6,30.25,WNW,298,0.0,0.0,83,0.00,,,0.00,0.0,WeatherDisplay:10.37,2013-02-25 09:55:00,
2013-02-25 02:00:00,37.3,32.6,30.25,WNW,298,0.0,0.0,83,0.00,,,0.00,0.0,WeatherDisplay:10.37,2013-02-25 10:00:00,
2013-02-25 02:05:00,37.2,32.5,30.25,WNW,298,0.0,0.0,83,0.00,,,0.00,0.0,WeatherDisplay:10.37,2013-02-25 10:05:00,
2013-02-25 02:10:00,37.1,32.4,30.25,WNW,298,0.0,0.0,83,0.00,CLR,,0.00,0.0,WeatherDisplay:10.37,2013-02-25 10:10:00,
2013-02-25 02:15:00,36.9,32.2,30.25,WNW,298,0.0,0.0,83,0.00,,,0.00,0.0,WeatherDisplay:10.37,2013-02-25 10:15:00,
2013-02-25 02:20:00,36.8,32.1,30.25,WNW,298,0.0,0.0,83,0.00,,,0.00,0.0,WeatherDisplay:10.37,2013-02-25 10:20:00,
2013-02-25 02:25:00,36.7,32.0,30.25,WNW,298,0.0,0.0,83,0.00,,,0.00,0.0,WeatherDisplay:10.37,2013-02-25 10:25:00,
2013-02-25 02:30:00,36.6,32.2,30.25,WNW,298,0.0,0.0,84,0.00,,,0.00,0.0,WeatherDisplay:10.37,2013-02-25 10:30:00,
2013-02-25 02:35:00,36.6,32.2,30.25,WNW,298,0.0,0.0,84,0.00,,,0.00,0.0,WeatherDisplay:10.37,2013-02-25 10:35:00,
2013-02-25 02:40:00,36.6,32.2,30.25,WNW,298,0.0,0.0,84,0.00,CLR,,0.00,0.0,WeatherDisplay:10.37,2013-02-25 10:40:00,
2013-02-25 02:45:00,36.6,32.2,30.25,WNW,298,0.0,0.0,84,0.00,,,0.00,0.0,WeatherDisplay:10.37,2013-02-25 10:45:00,
2013-02-25 02:50:00,36.6,32.2,30.25,WNW,298,0.0,0.0,84,0.00,,,0.00,0.0,WeatherDisplay:10.37,2013-02-25 10:50:00,
2013-02-25 02:55:00,36.6,32.2,30.25,WNW,298,0.0,0.0,84,0.00,,,0.00,0.0,WeatherDisplay:10.37,2013-02-25 10:55:00,
2013-02-25 03:00:00,36.5,32.1,30.24,WNW,298,0.0,0.0,84,0.00,,,0.00,0.0,WeatherDisplay:10.37,2013-02-25 11:00:00,
2013-02-25 03:05:00,36.5,32.1,30.25,WNW,298,0.0,0.0,84,0.00,,,0.00,0.0,WeatherDisplay:10.37,2013-02-25 11:05:00,
2013-02-25 03:10:00,36.4,32.0,30.25,WNW,298,0.0,0.1,84,0.00,,,0.00,0.0,WeatherDisplay:10.37,2013-02-25 11:10:00,
2013-02-25 03:15:00,36.4,32.0,30.25,WNW,298,0.0,0.0,84,0.00,,,0.00,0.0,WeatherDisplay:10.37,2013-02-25 11:15:00,
2013-02-25 03:20:00,36.2,31.8,30.25,WNW,298,0.0,0.0,84,0.00,CLR,,0.00,0.0,WeatherDisplay:10.37,2013-02-25 11:20:00,
2013-02-25 03:25:00,36.1,31.7,30.25,WNW,298,0.0,0.0,84,0.00,,,0.00,0.0,WeatherDisplay:10.37,2013-02-25 11:25:00,
2013-02-25 03:30:00,36.0,31.6,30.25,WNW,298,0.0,0.0,84,0.00,,,0.00,0.0,WeatherDisplay:10.37,2013-02-25 11:30:00,
2013-02-25 03:35:00,35.9,31.5,30.25,WNW,298,0.0,0.0,84,0.00,,,0.00,0.0,WeatherDisplay:10.37,2013-02-25 11:35:00,
2013-02-25 03:40:00,35.8,31.4,30.25,WNW,298,0.0,0.0,84,0.00,,,0.00,0.0,WeatherDisplay:10.37,2013-02-25 11:40:00,
2013-02-25 03:45:00,35.8,31.7,30.25,WNW,298,0.0,0.0,85,0.00,,,0.00,0.0,WeatherDisplay:10.37,2013-02-25 11:45:00,
2013-02-25 03:50:00,35.8,31.7,30.25,WNW,298,0.0,0.0,85,0.00,CLR,,0.00,0.0,WeatherDisplay:10.37,2013-02-25 11:50:00,
2013-02-25 03:55:00,35.7,31.6,30.25,WNW,298,0.0,0.0,85,0.00,,,0.00,0.0,WeatherDisplay:10.37,2013-02-25 11:55:00,
2013-02-25 04:00:00,35.6,31.5,30.25,WNW,298,0.0,0.0,85,0.00,,,0.00,0.0,WeatherDisplay:10.37,2013-02-25 12:00:00,
2013-02-25 04:05:00,35.5,31.4,30.26,WNW,298,0.0,0.0,85,0.00,,,0.00,0.0,WeatherDisplay:10.37,2013-02-25 12:05:00,
2013-02-25 04:10:00,35.5,31.4,30.26,WNW,298,0.0,0.0,85,0.00,CLR,,0.00,0.0,WeatherDisplay:10.37,2013-02-25 12:10:00,
2013-02-25 04:15:00,35.5,31.4,30.26,WNW,298,0.0,0.0,85,0.00,,,0.00,0.0,WeatherDisplay:10.37,2013-02-25 12:15:00,
2013-02-25 04:20:00,35.4,31.3,30.26,WNW,298,0.0,0.0,85,0.00,CLR,,0.00,0.0,WeatherDisplay:10.37,2013-02-25 12:20:00,
2013-02-25 04:25:00,35.4,31.3,30.26,WNW,298,0.0,0.0,85,0.00,CLR,,0.00,0.0,WeatherDisplay:10.37,2013-02-25 12:25:00,
2013-02-25 04:30:00,35.3,31.2,30.25,WNW,298,0.0,0.0,85,0.00,,,0.00,0.0,WeatherDisplay:10.37,2013-02-25 12:30:00,
2013-02-25 04:35:00,35.2,31.1,30.25,WNW,298,0.0,0.0,85,0.00,,,0.00,0.0,WeatherDisplay:10.37,2013-02-25 12:35:00,
2013-02-25 04:40:00,35.2,31.1,30.25,WNW,298,0.0,0.0,85,0.00,,,0.00,0.0,WeatherDisplay:10.37,2013-02-25 12:40:00,
2013-02-25 04:46:00,35.1,31.0,30.25,WNW,298,0.0,0.0,85,0.00,,,0.00,0.0,WeatherDisplay:10.37,2013-02-25 12:46:00,
2013-02-25 04:51:00,35.0,30.9,30.25,WNW,298,0.0,0.0,85,0.00,,,0.00,0.0,WeatherDisplay:10.37,2013-02-25 12:51:00,
2013-02-25 04:57:00,34.9,31.1,30.26,WNW,298,0.0,0.0,86,0.00,,,0.00,0.0,WeatherDisplay:10.37,2013-02-25 12:57:00,
2013-02-25 05:02:00,34.9,31.1,30.26,WNW,298,0.0,0.0,86,0.00,,,0.00,0.0,WeatherDisplay:10.37,2013-02-25 13:02:00,
2013-02-25 05:07:00,35.0,31.2,30.25,WNW,298,0.0,0.0,86,0.00,,,0.00,0.0,WeatherDisplay:10.37,2013-02-25 13:07:00,
2013-02-25 05:12:00,35.0,31.2,30.25,WNW,298,0.0,0.0,86,0.00,,,0.00,0.0,WeatherDisplay:10.37,2013-02-25 13:12:00,
2013-02-25 05:17:00,35.0,31.2,30.25,WNW,298,0.0,0.0,86,0.00,,,0.00,0.0,WeatherDisplay:10.37,2013-02-25 13:17:00,
2013-02-25 05:22:00,35.1,31.3,30.25,WNW,298,0.0,0.0,86,0.00,,,0.00,0.0,WeatherDisplay:10.37,2013-02-25 13:22:00,
2013-02-25 05:27:00,35.2,31.4,30.25,WNW,298,0.0,0.0,86,0.00,,,0.00,0.0,WeatherDisplay:10.37,2013-02-25 13:27:00,
2013-02-25 05:32:00,35.1,31.3,30.25,WNW,298,0.0,0.0,86,0.00,,,0.00,0.0,WeatherDisplay:10.37,2013-02-25 13:32:00,
2013-02-25 05:37:00,35.0,31.2,30.25,WNW,298,0.0,0.0,86,0.00,,,0.00,0.0,WeatherDisplay:10.37,2013-02-25 13:37:00,
2013-02-25 05:43:00,35.0,31.2,30.25,WNW,298,0.0,0.0,86,0.00,,,0.00,0.0,WeatherDisplay:10.37,2013-02-25 13:43:00,
2013-02-25 05:48:00,35.0,31.2,30.25,WNW,298,0.0,0.0,86,0.00,,,0.00,0.0,WeatherDisplay:10.37,2013-02-25 13:48:00,
2013-02-25 05:53:00,35.0,31.5,30.25,WNW,298,0.0,0.0,87,0.00,,,0.00,0.0,WeatherDisplay:10.37,2013-02-25 13:53:00,
2013-02-25 05:58:00,35.0,31.5,30.25,WNW,298,0.0,0.0,87,0.00,,,0.00,0.0,WeatherDisplay:10.37,2013-02-25 13:58:00,
2013-02-25 06:03:00,34.8,31.3,30.25,WNW,298,0.0,0.0,87,0.00,,,0.00,0.0,WeatherDisplay:10.37,2013-02-25 14:03:00,
2013-02-25 06:08:00,34.7,31.2,30.25,WNW,298,0.0,0.0,87,0.00,,,0.00,0.0,WeatherDisplay:10.37,2013-02-25 14:08:00,
2013-02-25 06:13:00,34.5,31.0,30.25,WNW,298,0.0,0.0,87,0.00,,,0.00,0.0,WeatherDisplay:10.37,2013-02-25 14:13:00,
2013-02-25 06:18:00,34.4,30.9,30.25,WNW,298,0.0,0.0,87,0.00,OVC,,0.00,0.0,WeatherDisplay:10.37,2013-02-25 14:18:00,
2013-02-25 06:23:00,34.4,30.9,30.25,WNW,298,0.0,0.0,87,0.00,OVC,,0.00,0.0,WeatherDisplay:10.37,2013-02-25 14:23:00,
2013-02-25 06:28:00,34.4,30.9,30.25,WNW,298,0.0,0.0,87,0.00,OVC,,0.00,0.0,WeatherDisplay:10.37,2013-02-25 14:28:00,
2013-02-25 06:33:00,34.3,30.8,30.25,WNW,298,0.0,0.0,87,0.00,OVC,,0.00,0.0,WeatherDisplay:10.37,2013-02-25 14:33:00,
2013-02-25 06:38:00,34.2,30.7,30.25,WNW,298,0.0,0.0,87,0.00,OVC,,0.00,0.0,WeatherDisplay:10.37,2013-02-25 14:38:00,
2013-02-25 06:43:00,34.2,30.7,30.25,WNW,298,0.0,0.0,87,0.00,OVC,,0.00,0.0,WeatherDisplay:10.37,2013-02-25 14:43:00,
2013-02-25 06:48:00,34.4,31.2,30.26,WNW,298,1.2,1.2,88,0.00,OVC,,0.00,5.0,WeatherDisplay:10.37,2013-02-25 14:48:00,
2013-02-25 06:53:00,34.7,31.5,30.25,WNW,298,0.0,0.0,88,0.00,CLR,,0.00,9.0,WeatherDisplay:10.37,2013-02-25 14:53:00,
2013-02-25 06:58:00,34.7,31.5,30.26,WNW,298,0.0,0.0,88,0.00,SCT,,0.00,12.0,WeatherDisplay:10.37,2013-02-25 14:58:00,
2013-02-25 07:03:00,34.6,31.1,30.26,WNW,298,0.0,0.0,87,0.00,SCT,,0.00,16.0,WeatherDisplay:10.37,2013-02-25 15:03:00,
2013-02-25 07:08:00,34.6,31.4,30.26,WNW,298,0.0,0.0,88,0.00,BKN,,0.00,23.0,WeatherDisplay:10.37,2013-02-25 15:08:00,
2013-02-25 07:13:00,34.6,31.4,30.26,WNW,298,0.0,0.0,88,0.00,BKN,,0.00,21.0,WeatherDisplay:10.37,2013-02-25 15:13:00,
2013-02-25 07:18:00,34.8,31.6,30.27,WNW,298,0.0,0.0,88,0.00,BKN,,0.00,26.0,WeatherDisplay:10.37,2013-02-25 15:18:00,
2013-02-25 07:23:00,35.1,31.9,30.27,WNW,298,0.0,0.0,88,0.00,BKN,,0.00,28.0,WeatherDisplay:10.37,2013-02-25 15:23:00,
2013-02-25 07:28:00,35.6,32.7,30.27,WNW,298,0.0,0.0,89,0.00,SCT,,0.00,65.0,WeatherDisplay:10.37,2013-02-25 15:28:00,
2013-02-25 07:33:00,36.1,33.2,30.27,WNW,298,0.0,0.0,89,0.00,CLR,,0.00,84.0,WeatherDisplay:10.37,2013-02-25 15:33:00,
2013-02-25 07:38:00,36.9,34.0,30.27,WNW,298,0.0,0.0,89,0.00,CLR,,0.00,95.0,WeatherDisplay:10.37,2013-02-25 15:38:00,
2013-02-25 07:43:00,37.6,34.7,30.27,WNW,298,0.0,0.0,89,0.00,CLR,,0.00,111.0,WeatherDisplay:10.37,2013-02-25 15:43:00,
2013-02-25 07:48:00,38.2,35.2,30.27,WNW,298,0.0,0.0,89,0.00,CLR,,0.00,127.0,WeatherDisplay:10.37,2013-02-25 15:48:00,
2013-02-25 07:53:00,39.3,36.3,30.27,WNW,298,0.0,0.0,89,0.00,CLR,,0.00,144.0,WeatherDisplay:10.37,2013-02-25 15:53:00,
2013-02-25 07:58:00,41.1,38.1,30.27,WNW,298,0.0,0.0,89,0.00,CLR,,0.00,163.0,WeatherDisplay:10.37,2013-02-25 15:58:00,
2013-02-25 08:03:00,42.4,38.5,30.27,WNW,298,0.0,0.0,86,0.00,CLR,,0.00,183.0,WeatherDisplay:10.37,2013-02-25 16:03:00,
2013-02-25 08:08:00,43.5,38.4,30.27,WNW,298,1.2,0.0,82,0.00,CLR,,0.00,200.0,WeatherDisplay:10.37,2013-02-25 16:08:00,
2013-02-25 08:13:00,44.5,38.4,30.27,WNW,295,1.2,1.2,79,0.00,CLR,,0.00,220.0,WeatherDisplay:10.37,2013-02-25 16:13:00,
2013-02-25 08:18:00,45.4,38.6,30.27,West,260,1.2,1.2,77,0.00,CLR,,0.00,246.0,WeatherDisplay:10.37,2013-02-25 16:18:00,
2013-02-25 08:23:00,46.1,38.6,30.27,West,260,1.2,1.2,75,0.00,CLR,,0.00,265.0,WeatherDisplay:10.37,2013-02-25 16:23:00,
2013-02-25 08:28:00,46.8,38.6,30.27,WSW,254,1.2,1.2,73,0.00,CLR,,0.00,285.0,WeatherDisplay:10.37,2013-02-25 16:28:00,
2013-02-25 08:33:00,47.1,38.5,30.27,SW,215,1.2,1.2,72,0.00,CLR,,0.00,306.0,WeatherDisplay:10.37,2013-02-25 16:33:00,
2013-02-25 08:38:00,47.7,38.4,30.27,ESE,123,1.2,1.2,70,0.00,CLR,,0.00,323.0,WeatherDisplay:10.37,2013-02-25 16:38:00,
2013-02-25 08:43:00,48.0,38.3,30.26,ESE,118,1.2,1.2,69,0.00,CLR,,0.00,339.0,WeatherDisplay:10.37,2013-02-25 16:43:00,
2013-02-25 08:48:00,48.7,38.6,30.26,ESE,118,2.0,2.0,68,0.00,CLR,,0.00,357.0,WeatherDisplay:10.37,2013-02-25 16:48:00,
2013-02-25 08:53:00,49.3,38.8,30.26,ESE,118,0.0,0.0,67,0.00,CLR,,0.00,378.0,WeatherDisplay:10.37,2013-02-25 16:53:00,
2013-02-25 08:58:00,49.8,38.9,30.26,ESE,119,0.0,0.2,66,0.00,CLR,,0.00,345.0,WeatherDisplay:10.37,2013-02-25 16:58:00,
2013-02-25 09:03:00,49.9,39.0,30.26,ESE,113,3.5,3.5,66,0.00,CLR,,0.00,411.0,WeatherDisplay:10.37,2013-02-25 17:03:00,
2013-02-25 09:08:00,50.3,39.0,30.26,South,177,3.5,3.5,65,0.00,CLR,,0.00,431.0,WeatherDisplay:10.37,2013-02-25 17:08:00,
2013-02-25 09:13:00,50.5,39.6,30.26,East,79,2.3,2.3,66,0.00,CLR,,0.00,441.0,WeatherDisplay:10.37,2013-02-25 17:13:00,
2013-02-25 09:18:00,51.4,40.0,30.26,SE,134,1.2,1.2,65,0.00,CLR,,0.00,452.0,WeatherDisplay:10.37,2013-02-25 17:18:00,
2013-02-25 09:23:00,51.9,40.1,30.26,East,94,1.2,1.2,64,0.00,CLR,,0.00,464.0,WeatherDisplay:10.37,2013-02-25 17:23:00,
2013-02-25 09:28:00,52.5,40.7,30.26,East,94,1.2,1.2,64,0.00,CLR,,0.00,476.0,WeatherDisplay:10.37,2013-02-25 17:28:00,
2013-02-25 09:33:00,53.0,41.1,30.26,East,92,1.2,1.2,64,0.00,CLR,,0.00,490.0,WeatherDisplay:10.37,2013-02-25 17:33:00,
2013-02-25 09:38:00,53.0,41.1,30.26,East,92,1.2,1.2,64,0.00,CLR,,0.00,471.0,WeatherDisplay:10.37,2013-02-25 17:38:00,
2013-02-25 09:43:00,52.5,40.7,30.26,NW,304,2.3,2.3,64,0.00,CLR,,0.00,513.0,WeatherDisplay:10.37,2013-02-25 17:43:00,
2013-02-25 09:48:00,52.8,41.0,30.25,NE,49,1.2,1.2,64,0.00,CLR,,0.00,524.0,WeatherDisplay:10.37,2013-02-25 17:48:00,
2013-02-25 09:53:00,52.9,40.2,30.25,East,92,3.5,3.5,62,0.00,CLR,,0.00,517.0,WeatherDisplay:10.37,2013-02-25 17:53:00,
2013-02-25 09:58:00,53.1,40.8,30.25,East,96,2.3,2.3,63,0.00,CLR,,0.00,548.0,WeatherDisplay:10.37,2013-02-25 17:58:00,
2013-02-25 10:03:00,54.5,41.7,30.25,East,82,1.2,1.2,62,0.00,CLR,,0.00,563.0,WeatherDisplay:10.37,2013-02-25 18:03:00,
2013-02-25 10:08:00,54.6,41.0,30.25,East,79,2.0,2.0,60,0.00,CLR,,0.00,571.0,WeatherDisplay:10.37,2013-02-25 18:08:00,
2013-02-25 10:13:00,54.4,40.8,30.25,East,93,2.3,2.3,60,0.00,CLR,,0.00,585.0,WeatherDisplay:10.37,2013-02-25 18:13:00,
2013-02-25 10:18:00,55.1,41.5,30.24,East,96,1.2,1.2,60,0.00,CLR,,0.00,592.0,WeatherDisplay:10.37,2013-02-25 18:18:00,
2013-02-25 10:23:00,55.7,42.0,30.24,SE,128,2.3,2.3,60,0.00,CLR,,0.00,584.0,WeatherDisplay:10.37,2013-02-25 18:23:00,
2013-02-25 10:28:00,56.3,41.3,30.24,SE,128,2.3,2.3,57,0.00,CLR,,0.00,613.0,WeatherDisplay:10.37,2013-02-25 18:28:00,
2013-02-25 10:33:00,56.4,41.3,30.24,SSE,155,1.2,1.2,57,0.00,CLR,,0.00,631.0,WeatherDisplay:10.37,2013-02-25 18:33:00,
2013-02-25 10:38:00,56.8,41.3,30.25,SSE,155,1.2,0.0,56,0.00,CLR,,0.00,645.0,WeatherDisplay:10.37,2013-02-25 18:38:00,
2013-02-25 10:43:00,57.5,41.9,30.25,East,80,2.0,2.0,56,0.00,CLR,,0.00,652.0,WeatherDisplay:10.37,2013-02-25 18:43:00,
2013-02-25 10:48:00,57.3,41.3,30.24,NNW,348,2.3,2.3,55,0.00,CLR,,0.00,654.0,WeatherDisplay:10.37,2013-02-25 18:48:00,
2013-02-25 10:53:00,57.7,42.6,30.24,NE,51,1.2,1.4,57,0.00,CLR,,0.00,666.0,WeatherDisplay:10.37,2013-02-25 18:53:00,
2013-02-25 10:58:00,57.3,42.2,30.24,ENE,57,2.3,2.3,57,0.00,CLR,,0.00,671.0,WeatherDisplay:10.37,2013-02-25 18:58:00,
2013-02-25 11:03:00,57.8,43.1,30.24,NE,36,2.3,2.3,58,0.00,CLR,,0.00,682.0,WeatherDisplay:10.37,2013-02-25 19:03:00,
2013-02-25 11:08:00,57.4,42.3,30.24,NE,41,2.3,2.3,57,0.00,CLR,,0.00,682.0,WeatherDisplay:10.37,2013-02-25 19:08:00,
2013-02-25 11:13:00,57.6,42.9,30.24,East,85,2.3,2.3,58,0.00,CLR,,0.00,679.0,WeatherDisplay:10.37,2013-02-25 19:13:00,
2013-02-25 11:18:00,57.7,43.5,30.24,ENE,77,1.2,0.0,59,0.00,CLR,,0.00,698.0,WeatherDisplay:10.37,2013-02-25 19:18:00,
2013-02-25 11:23:00,58.6,43.4,30.24,East,91,2.0,2.0,57,0.00,CLR,,0.00,675.0,WeatherDisplay:10.37,2013-02-25 19:23:00,
2013-02-25 11:28:00,58.6,43.4,30.24,ENE,64,2.3,2.3,57,0.00,CLR,,0.00,654.0,WeatherDisplay:10.37,2013-02-25 19:28:00,
2013-02-25 11:33:00,58.5,42.4,30.24,NE,46,2.3,2.3,55,0.00,CLR,,0.00,624.0,WeatherDisplay:10.37,2013-02-25 19:33:00,
2013-02-25 11:38:00,59.0,43.3,30.23,NE,45,2.3,2.3,56,0.00,CLR,,0.00,737.0,WeatherDisplay:10.37,2013-02-25 19:38:00,
2013-02-25 11:43:00,59.1,42.5,30.23,NE,41,1.2,1.2,54,0.00,CLR,,0.00,742.0,WeatherDisplay:10.37,2013-02-25 19:43:00,
2013-02-25 11:48:00,59.1,42.0,30.23,NNE,13,5.8,5.8,53,0.00,CLR,,0.00,744.0,WeatherDisplay:10.37,2013-02-25 19:48:00,
2013-02-25 11:53:00,59.4,42.3,30.23,NW,304,5.0,5.0,53,0.00,CLR,,0.00,664.0,WeatherDisplay:10.37,2013-02-25 19:53:00,
2013-02-25 11:58:00,59.0,41.4,30.23,NE,37,3.5,3.5,52,0.00,CLR,,0.00,735.0,WeatherDisplay:10.37,2013-02-25 19:58:00,
2013-02-25 12:03:00,59.8,42.1,30.23,NE,45,1.2,1.2,52,0.00,CLR,,0.00,731.0,WeatherDisplay:10.37,2013-02-25 20:03:00,
2013-02-25 12:08:00,59.9,41.7,30.23,NE,53,1.2,1.2,51,0.00,CLR,,0.00,731.0,WeatherDisplay:10.37,2013-02-25 20:08:00,
2013-02-25 12:13:00,60.6,41.3,30.23,NW,321,4.0,4.0,49,0.00,CLR,,0.00,726.0,WeatherDisplay:10.37,2013-02-25 20:13:00,
2013-02-25 12:18:00,60.2,41.0,30.23,NE,36,1.2,1.2,49,0.00,CLR,,0.00,735.0,WeatherDisplay:10.37,2013-02-25 20:18:00,
2013-02-25 12:23:00,60.3,41.6,30.22,NE,38,2.3,2.3,50,0.00,CLR,,0.00,728.0,WeatherDisplay:10.37,2013-02-25 20:23:00,
2013-02-25 12:28:00,60.2,41.5,30.22,NE,48,2.3,2.3,50,0.00,CLR,,0.00,715.0,WeatherDisplay:10.37,2013-02-25 20:28:00,
2013-02-25 12:33:00,59.4,41.3,30.22,North,360,4.0,4.0,51,0.00,CLR,,0.00,733.0,WeatherDisplay:10.37,2013-02-25 20:33:00,
2013-02-25 12:38:00,59.0,41.9,30.22,North,360,2.3,2.3,53,0.00,CLR,,0.00,728.0,WeatherDisplay:10.37,2013-02-25 20:38:00,
2013-02-25 12:43:00,59.0,42.8,30.22,ENE,61,4.6,4.6,55,0.00,CLR,,0.00,733.0,WeatherDisplay:10.37,2013-02-25 20:43:00,
2013-02-25 12:48:00,59.0,43.8,30.22,North,351,4.6,4.6,57,0.00,CLR,,0.00,731.0,WeatherDisplay:10.37,2013-02-25 20:48:00,
2013-02-25 12:53:00,59.5,43.8,30.22,WNW,284,8.0,8.0,56,0.00,CLR,,0.00,714.0,WeatherDisplay:10.37,2013-02-25 20:53:00,
2013-02-25 12:58:00,59.2,44.0,30.21,NW,323,1.2,1.2,57,0.00,CLR,,0.00,714.0,WeatherDisplay:10.37,2013-02-25 20:58:00,
2013-02-25 13:03:00,59.0,43.3,30.21,North,360,8.1,8.1,56,0.00,CLR,,0.00,698.0,WeatherDisplay:10.37,2013-02-25 21:03:00,
2013-02-25 13:08:00,59.6,44.3,30.21,North,355,2.0,2.0,57,0.00,CLR,,0.00,708.0,WeatherDisplay:10.37,2013-02-25 21:08:00,
2013-02-25 13:13:00,60.3,44.5,30.21,NNW,332,1.2,1.2,56,0.00,CLR,,0.00,707.0,WeatherDisplay:10.37,2013-02-25 21:13:00,
2013-02-25 13:18:00,61.3,45.5,30.21,WNW,292,6.0,6.0,56,0.00,CLR,,0.00,703.0,WeatherDisplay:10.37,2013-02-25 21:18:00,
2013-02-25 13:23:00,59.8,45.0,30.20,North,351,4.6,4.6,58,0.00,CLR,,0.00,701.0,WeatherDisplay:10.37,2013-02-25 21:23:00,
2013-02-25 13:28:00,60.4,45.1,30.20,WNW,299,11.0,11.0,57,0.00,CLR,,0.00,684.0,WeatherDisplay:10.37,2013-02-25 21:28:00,
2013-02-25 13:33:00,60.5,45.2,30.20,NNW,337,6.0,6.0,57,0.00,CLR,,0.00,684.0,WeatherDisplay:10.37,2013-02-25 21:33:00,
2013-02-25 13:38:00,60.2,44.9,30.19,NNW,334,8.1,8.1,57,0.00,CLR,,0.00,666.0,WeatherDisplay:10.37,2013-02-25 21:38:00,
2013-02-25 13:43:00,60.8,44.5,30.20,NW,306,7.0,7.0,55,0.00,CLR,,0.00,659.0,WeatherDisplay:10.37,2013-02-25 21:43:00,
2013-02-25 13:48:00,60.6,44.3,30.19,NW,316,11.5,11.5,55,0.00,CLR,,0.00,652.0,WeatherDisplay:10.37,2013-02-25 21:48:00,
2013-02-25 13:53:00,60.7,43.9,30.19,WNW,302,4.0,4.0,54,0.00,CLR,,0.00,650.0,WeatherDisplay:10.37,2013-02-25 21:53:00,
2013-02-25 13:58:00,60.6,42.9,30.19,NW,314,4.6,4.6,52,0.00,CLR,,0.00,640.0,WeatherDisplay:10.37,2013-02-25 21:58:00,
2013-02-25 14:03:00,60.2,42.5,30.19,NNW,327,9.2,9.2,52,0.00,CLR,,0.00,624.0,WeatherDisplay:10.37,2013-02-25 22:03:00,
2013-02-25 14:08:00,60.6,42.4,30.19,WNW,290,8.0,8.0,51,0.00,CLR,,0.00,610.0,WeatherDisplay:10.37,2013-02-25 22:08:00,
2013-02-25 14:13:00,60.7,43.5,30.19,NW,309,4.0,4.0,53,0.00,CLR,,0.00,608.0,WeatherDisplay:10.37,2013-02-25 22:13:00,
2013-02-25 14:18:00,61.7,43.9,30.19,WNW,284,5.0,5.0,52,0.00,CLR,,0.00,610.0,WeatherDisplay:10.37,2013-02-25 22:18:00,
2013-02-25 14:23:00,61.5,44.2,30.19,NNW,340,5.8,5.8,53,0.00,CLR,,0.00,592.0,WeatherDisplay:10.37,2013-02-25 22:23:00,
2013-02-25 14:28:00,61.6,43.3,30.20,NNW,336,5.8,5.8,51,0.00,CLR,,0.00,592.0,WeatherDisplay:10.37,2013-02-25 22:28:00,
2013-02-25 14:33:00,61.6,43.3,30.20,NNW,345,6.9,6.9,51,0.00,CLR,,0.00,568.0,WeatherDisplay:10.37,2013-02-25 22:33:00,
2013-02-25 14:38:00,61.4,43.6,30.20,North,5,3.5,3.5,52,0.00,CLR,,0.00,559.0,WeatherDisplay:10.37,2013-02-25 22:38:00,
2013-02-25 14:43:00,62.0,44.2,30.20,North,349,4.0,4.0,52,0.00,CLR,,0.00,547.0,WeatherDisplay:10.37,2013-02-25 22:43:00,
2013-02-25 14:48:00,61.3,43.5,30.20,NNW,337,4.6,4.6,52,0.00,CLR,,0.00,552.0,WeatherDisplay:10.37,2013-02-25 22:48:00,
2013-02-25 14:53:00,61.4,44.1,30.20,WNW,299,12.7,12.7,53,0.00,CLR,,0.00,543.0,WeatherDisplay:10.37,2013-02-25 22:53:00,
2013-02-25 14:58:00,61.3,43.5,30.19,North,360,6.9,6.9,52,0.00,CLR,,0.00,522.0,WeatherDisplay:10.37,2013-02-25 22:58:00,
2013-02-25 15:03:00,61.2,43.4,30.19,NNW,332,4.6,4.6,52,0.00,CLR,,0.00,452.0,WeatherDisplay:10.37,2013-02-25 23:03:00,
2013-02-25 15:08:00,61.6,43.8,30.19,WNW,295,4.6,4.6,52,0.00,CLR,,0.00,494.0,WeatherDisplay:10.37,2013-02-25 23:08:00,
2013-02-25 15:13:00,61.4,43.1,30.19,NW,309,6.9,6.9,51,0.00,CLR,,0.00,482.0,WeatherDisplay:10.37,2013-02-25 23:13:00,
2013-02-25 15:18:00,61.0,42.7,30.19,WNW,299,6.9,6.9,51,0.00,CLR,,0.00,461.0,WeatherDisplay:10.37,2013-02-25 23:18:00,
2013-02-25 15:23:00,60.8,43.1,30.19,NW,321,2.3,2.3,52,0.00,CLR,,0.00,446.0,WeatherDisplay:10.37,2013-02-25 23:23:00,
2013-02-25 15:28:00,61.1,43.3,30.18,NW,309,4.6,4.6,52,0.00,CLR,,0.00,432.0,WeatherDisplay:10.37,2013-02-25 23:28:00,
2013-02-25 15:33:00,60.9,43.6,30.18,WNW,300,5.8,5.8,53,0.00,CLR,,0.00,422.0,WeatherDisplay:10.37,2013-02-25 23:33:00,
2013-02-25 15:38:00,61.3,43.5,30.18,NW,313,3.5,3.5,52,0.00,CLR,,0.00,406.0,WeatherDisplay:10.37,2013-02-25 23:38:00,
2013-02-25 15:43:00,61.4,42.6,30.18,NW,304,3.5,3.5,50,0.00,CLR,,0.00,390.0,WeatherDisplay:10.37,2013-02-25 23:43:00,
2013-02-25 15:48:00,61.4,43.1,30.18,WNW,298,4.0,4.0,51,0.00,CLR,,0.00,374.0,WeatherDisplay:10.37,2013-02-25 23:48:00,
2013-02-25 15:53:00,61.4,43.1,30.18,WNW,284,5.0,5.0,51,0.00,CLR,,0.00,357.0,WeatherDisplay:10.37,2013-02-25 23:53:00,
2013-02-25 15:58:00,61.4,43.6,30.18,WNW,303,9.2,9.2,52,0.00,CLR,,0.00,272.0,WeatherDisplay:10.37,2013-02-25 23:58:00,
2013-02-25 16:03:00,61.4,43.6,30.18,WNW,296,6.9,6.9,52,0.00,CLR,,0.00,227.0,WeatherDisplay:10.37,2013-02-26 00:03:00,
2013-02-25 16:08:00,61.7,44.4,30.18,NNW,334,2.0,2.0,53,0.00,FEW,,0.00,148.0,WeatherDisplay:10.37,2013-02-26 00:08:00,
2013-02-25 16:13:00,61.2,43.9,30.18,WNW,296,5.8,5.8,53,0.00,SCT,,0.00,287.0,WeatherDisplay:10.37,2013-02-26 00:13:00,
2013-02-25 16:18:00,61.1,43.8,30.18,WNW,291,6.9,6.9,53,0.00,FEW,,0.00,267.0,WeatherDisplay:10.37,2013-02-26 00:18:00,
2013-02-25 16:23:00,61.1,44.3,30.17,WNW,288,1.2,1.2,54,0.00,CLR,,0.00,257.0,WeatherDisplay:10.37,2013-02-26 00:23:00,
2013-02-25 16:28:00,60.8,44.5,30.17,West,281,2.3,2.3,55,0.00,CLR,,0.00,53.0,WeatherDisplay:10.37,2013-02-26 00:28:00,
2013-02-25 16:33:00,60.5,44.2,30.17,West,274,2.3,2.3,55,0.00,SCT,,0.00,40.0,WeatherDisplay:10.37,2013-02-26 00:33:00,
2013-02-25 16:38:00,60.5,44.7,30.17,NW,311,5.8,5.8,56,0.00,BKN,,0.00,39.0,WeatherDisplay:10.37,2013-02-26 00:38:00,
2013-02-25 16:43:00,60.3,44.5,30.17,WNW,290,4.6,4.6,56,0.00,BKN,,0.00,39.0,WeatherDisplay:10.37,2013-02-26 00:43:00,
2013-02-25 16:48:00,60.2,44.4,30.17,NW,307,4.6,4.6,56,0.00,BKN,,0.00,37.0,WeatherDisplay:10.37,2013-02-26 00:48:00,
2013-02-25 16:53:00,60.1,44.3,30.17,NW,309,2.3,2.3,56,0.00,BKN,,0.00,33.0,WeatherDisplay:10.37,2013-02-26 00:53:00,
2013-02-25 16:58:00,59.9,44.2,30.17,WNW,302,2.3,2.3,56,0.00,BKN,,0.00,33.0,WeatherDisplay:10.37,2013-02-26 00:58:00,
2013-02-25 17:03:00,59.9,44.6,30.17,WSW,253,2.3,2.3,57,0.00,BKN,,0.00,32.0,WeatherDisplay:10.37,2013-02-26 01:03:00,
2013-02-25 17:08:00,59.8,44.5,30.17,WNW,292,1.0,1.0,57,0.00,BKN,,0.00,30.0,WeatherDisplay:10.37,2013-02-26 01:08:00,
2013-02-25 17:13:00,59.7,44.0,30.17,WNW,294,2.3,2.3,56,0.00,BKN,,0.00,30.0,WeatherDisplay:10.37,2013-02-26 01:13:00,
2013-02-25 17:18:00,59.6,44.3,30.17,WNW,299,1.2,1.2,57,0.00,BKN,,0.00,26.0,WeatherDisplay:10.37,2013-02-26 01:18:00,
2013-02-25 17:23:00,59.4,44.6,30.17,WNW,300,1.2,0.0,58,0.00,BKN,,0.00,25.0,WeatherDisplay:10.37,2013-02-26 01:23:00,
2013-02-25 17:28:00,59.2,44.9,30.17,WNW,300,1.2,1.2,59,0.00,BKN,,0.00,23.0,WeatherDisplay:10.37,2013-02-26 01:28:00,
2013-02-25 17:33:00,59.0,45.1,30.17,WNW,300,1.2,1.2,60,0.00,BKN,,0.00,19.0,WeatherDisplay:10.37,2013-02-26 01:33:00,
2013-02-25 17:38:00,59.0,45.6,30.17,WNW,300,0.0,0.0,61,0.00,BKN,,0.00,16.0,WeatherDisplay:10.37,2013-02-26 01:38:00,
2013-02-25 17:43:00,58.7,45.3,30.17,WNW,299,1.2,0.0,61,0.00,SCT,,0.00,12.0,WeatherDisplay:10.37,2013-02-26 01:43:00,
2013-02-25 17:48:00,58.4,45.4,30.17,WNW,300,2.3,0.0,62,0.00,SCT,,0.00,9.0,WeatherDisplay:10.37,2013-02-26 01:48:00,
2013-02-25 17:53:00,58.1,45.1,30.17,WNW,299,3.5,3.5,62,0.00,CLR,,0.00,7.0,WeatherDisplay:10.37,2013-02-26 01:53:00,
2013-02-25 17:58:00,57.8,44.9,30.17,WNW,300,4.0,4.0,62,0.00,OVC,,0.00,5.0,WeatherDisplay:10.37,2013-02-26 01:58:00,
2013-02-25 18:03:00,57.5,44.6,30.17,WNW,300,2.0,2.0,62,0.00,,,0.00,0.0,WeatherDisplay:10.37,2013-02-26 02:03:00,
2013-02-25 18:08:00,57.2,44.3,30.17,WNW,300,5.8,5.8,62,0.00,,,0.00,0.0,WeatherDisplay:10.37,2013-02-26 02:08:00,
2013-02-25 18:13:00,56.9,44.0,30.17,NW,305,3.5,3.5,62,0.00,,,0.00,0.0,WeatherDisplay:10.37,2013-02-26 02:13:00,
2013-02-25 18:18:00,56.6,43.7,30.17,NW,307,1.2,0.0,62,0.00,,,0.00,0.0,WeatherDisplay:10.37,2013-02-26 02:18:00,
2013-02-25 18:23:00,56.2,42.9,30.17,WNW,288,4.6,4.6,61,0.00,,,0.00,0.0,WeatherDisplay:10.37,2013-02-26 02:23:00,
2013-02-25 18:28:00,55.9,43.1,30.17,WNW,291,2.3,2.3,62,0.00,,,0.00,0.0,WeatherDisplay:10.37,2013-02-26 02:28:00,
2013-02-25 18:33:00,55.6,42.8,30.17,WNW,291,0.0,0.0,62,0.00,,,0.00,0.0,WeatherDisplay:10.37,2013-02-26 02:33:00,
2013-02-25 18:38:00,55.3,42.5,30.17,WNW,291,0.0,0.0,62,0.00,,,0.00,0.0,WeatherDisplay:10.37,2013-02-26 02:38:00,
2013-02-25 18:43:00,55.0,42.6,30.17,WNW,291,0.0,0.0,63,0.00,,,0.00,0.0,WeatherDisplay:10.37,2013-02-26 02:43:00,
2013-02-25 18:48:00,54.5,42.6,30.18,WNW,291,0.0,0.0,64,0.00,,,0.00,0.0,WeatherDisplay:10.37,2013-02-26 02:48:00,
2013-02-25 18:53:00,54.1,42.6,30.18,WNW,291,0.0,0.0,65,0.00,,,0.00,0.0,WeatherDisplay:10.37,2013-02-26 02:53:00,
2013-02-25 18:58:00,53.7,42.2,30.18,WNW,291,0.0,0.0,65,0.00,,,0.00,0.0,WeatherDisplay:10.37,2013-02-26 02:58:00,
2013-02-25 19:03:00,53.3,41.8,30.18,WNW,291,0.0,0.0,65,0.00,,,0.00,0.0,WeatherDisplay:10.37,2013-02-26 03:03:00,
2013-02-25 19:08:00,53.0,41.9,30.19,WNW,291,0.0,0.0,66,0.00,,,0.00,0.0,WeatherDisplay:10.37,2013-02-26 03:08:00,
2013-02-25 19:13:00,52.6,41.6,30.19,WNW,291,0.0,0.0,66,0.00,,,0.00,0.0,WeatherDisplay:10.37,2013-02-26 03:13:00,
2013-02-25 19:18:00,52.2,41.6,30.19,WNW,291,0.0,0.0,67,0.00,,,0.00,0.0,WeatherDisplay:10.37,2013-02-26 03:18:00,
2013-02-25 19:23:00,52.0,42.1,30.19,WNW,291,0.0,0.0,69,0.00,,,0.00,0.0,WeatherDisplay:10.37,2013-02-26 03:23:00,
2013-02-25 19:28:00,51.9,42.0,30.19,WNW,291,0.0,0.0,69,0.00,,,0.00,0.0,WeatherDisplay:10.37,2013-02-26 03:28:00,
2013-02-25 19:33:00,51.8,42.3,30.19,WNW,291,0.0,0.0,70,0.00,,,0.00,0.0,WeatherDisplay:10.37,2013-02-26 03:33:00,
2013-02-25 19:38:00,51.7,42.2,30.19,WNW,291,0.0,0.0,70,0.00,,,0.00,0.0,WeatherDisplay:10.37,2013-02-26 03:38:00,
2013-02-25 19:43:00,51.5,42.4,30.19,WNW,291,1.2,0.0,71,0.00,,,0.00,0.0,WeatherDisplay:10.37,2013-02-26 03:43:00,
2013-02-25 19:48:00,51.4,41.9,30.19,WNW,291,1.2,0.0,70,0.00,,,0.00,0.0,WeatherDisplay:10.37,2013-02-26 03:48:00,
2013-02-25 19:53:00,51.2,41.7,30.19,WNW,291,0.0,0.0,70,0.00,,,0.00,0.0,WeatherDisplay:10.37,2013-02-26 03:53:00,
2013-02-25 19:58:00,51.0,41.9,30.19,WNW,291,0.0,0.0,71,0.00,,,0.00,0.0,WeatherDisplay:10.37,2013-02-26 03:58:00,
2013-02-25 20:03:00,50.6,41.5,30.20,WNW,291,0.0,0.0,71,0.00,,,0.00,0.0,WeatherDisplay:10.37,2013-02-26 04:03:00,
2013-02-25 20:08:00,50.2,41.2,30.20,WNW,291,0.0,0.0,71,0.00,,,0.00,0.0,WeatherDisplay:10.37,2013-02-26 04:08:00,
2013-02-25 20:13:00,49.9,40.9,30.19,WNW,291,0.0,0.0,71,0.00,CLR,,0.00,0.0,WeatherDisplay:10.37,2013-02-26 04:13:00,
2013-02-25 20:18:00,49.5,40.8,30.19,WNW,291,0.0,0.0,72,0.00,,,0.00,0.0,WeatherDisplay:10.37,2013-02-26 04:18:00,
2013-02-25 20:23:00,49.1,40.5,30.19,WNW,291,0.0,0.0,72,0.00,,,0.00,0.0,WeatherDisplay:10.37,2013-02-26 04:23:00,
2013-02-25 20:28:00,48.7,40.1,30.19,WNW,291,0.0,0.0,72,0.00,CLR,,0.00,0.0,WeatherDisplay:10.37,2013-02-26 04:28:00,
2013-02-25 20:33:00,48.2,39.9,30.19,WNW,291,0.0,0.0,73,0.00,,,0.00,0.0,WeatherDisplay:10.37,2013-02-26 04:33:00,
2013-02-25 20:38:00,47.9,40.0,30.19,WNW,291,0.0,0.0,74,0.00,,,0.00,0.0,WeatherDisplay:10.37,2013-02-26 04:38:00,
2013-02-25 20:43:00,47.7,40.5,30.19,WNW,291,0.0,0.0,76,0.00,,,0.00,0.0,WeatherDisplay:10.37,2013-02-26 04:43:00,
2013-02-25 20:48:00,47.5,40.3,30.19,WNW,291,0.0,0.0,76,0.00,,,0.00,0.0,WeatherDisplay:10.37,2013-02-26 04:48:00,
2013-02-25 20:53:00,47.2,40.0,30.20,WNW,291,0.0,0.0,76,0.00,,,0.00,0.0,WeatherDisplay:10.37,2013-02-26 04:53:00,
2013-02-25 20:58:00,46.9,39.7,30.19,WNW,291,0.0,0.0,76,0.00,,,0.00,0.0,WeatherDisplay:10.37,2013-02-26 04:58:00,
2013-02-25 21:00:00,46.8,39.6,30.19,WNW,291,0.0,0.0,76,0.00,,,0.00,0.0,WeatherDisplay:10.37,2013-02-26 05:00:00,
2013-02-25 21:01:00,46.7,39.5,30.19,WNW,291,0.0,0.0,76,0.00,,,0.00,0.0,WeatherDisplay:10.37,2013-02-26 05:01:00,
2013-02-25 21:06:00,46.5,39.7,30.19,WNW,291,0.0,0.0,77,0.00,,,0.00,0.0,WeatherDisplay:10.37,2013-02-26 05:06:00,
2013-02-25 21:11:00,46.2,39.4,30.20,WNW,291,0.0,0.0,77,0.00,,,0.00,0.0,WeatherDisplay:10.37,2013-02-26 05:11:00,
2013-02-25 21:16:00,45.9,39.1,30.20,WNW,291,0.0,0.0,77,0.00,,,0.00,0.0,WeatherDisplay:10.37,2013-02-26 05:16:00,
2013-02-25 21:21:00,45.7,39.2,30.20,WNW,291,0.0,0.0,78,0.00,,,0.00,0.0,WeatherDisplay:10.37,2013-02-26 05:21:00,
2013-02-25 21:26:00,45.5,39.4,30.20,WNW,291,0.0,0.0,79,0.00,,,0.00,0.0,WeatherDisplay:10.37,2013-02-26 05:26:00,
2013-02-25 21:31:00,45.2,39.1,30.20,WNW,291,0.0,0.0,79,0.00,,,0.00,0.0,WeatherDisplay:10.37,2013-02-26 05:31:00,
2013-02-25 21:36:00,45.0,38.9,30.20,WNW,291,0.0,0.0,79,0.00,,,0.00,0.0,WeatherDisplay:10.37,2013-02-26 05:36:00,
2013-02-25 21:41:00,44.8,38.7,30.20,WNW,291,0.0,0.0,79,0.00,,,0.00,0.0,WeatherDisplay:10.37,2013-02-26 05:41:00,
2013-02-25 21:46:00,44.6,38.8,30.20,WNW,291,0.0,0.0,80,0.00,,,0.00,0.0,WeatherDisplay:10.37,2013-02-26 05:46:00,
2013-02-25 21:51:00,44.5,38.7,30.20,WNW,291,0.0,0.0,80,0.00,,,0.00,0.0,WeatherDisplay:10.37,2013-02-26 05:51:00,
2013-02-25 21:56:00,44.2,38.7,30.20,WNW,291,0.0,0.0,81,0.00,,,0.00,0.0,WeatherDisplay:10.37,2013-02-26 05:56:00,
2013-02-25 22:01:00,44.1,38.6,30.20,WNW,291,0.0,0.0,81,0.00,,,0.00,0.0,WeatherDisplay:10.37,2013-02-26 06:01:00,
2013-02-25 22:06:00,44.0,38.9,30.20,WNW,291,0.0,0.0,82,0.00,,,0.00,0.0,WeatherDisplay:10.37,2013-02-26 06:06:00,
2013-02-25 22:11:00,43.8,38.7,30.20,WNW,291,0.0,0.0,82,0.00,,,0.00,0.0,WeatherDisplay:10.37,2013-02-26 06:11:00,
2013-02-25 22:16:00,43.7,38.6,30.20,WNW,291,0.0,0.0,82,0.00,,,0.00,0.0,WeatherDisplay:10.37,2013-02-26 06:16:00,
2013-02-25 22:21:00,43.6,38.5,30.20,WNW,291,0.0,0.0,82,0.00,,,0.00,0.0,WeatherDisplay:10.37,2013-02-26 06:21:00,
2013-02-25 22:26:00,43.4,38.3,30.20,WNW,291,0.0,0.0,82,0.00,,,0.00,0.0,WeatherDisplay:10.37,2013-02-26 06:26:00,
2013-02-25 22:31:00,43.3,38.5,30.21,WNW,291,0.0,0.0,83,0.00,,,0.00,0.0,WeatherDisplay:10.37,2013-02-26 06:31:00,
2013-02-25 22:36:00,43.1,38.3,30.21,WNW,291,0.0,0.0,83,0.00,,,0.00,0.0,WeatherDisplay:10.37,2013-02-26 06:36:00,
2013-02-25 22:41:00,42.9,38.1,30.21,WNW,291,0.0,0.0,83,0.00,,,0.00,0.0,WeatherDisplay:10.37,2013-02-26 06:41:00,
2013-02-25 22:46:00,42.7,37.9,30.20,WNW,291,0.0,0.0,83,0.00,,,0.00,0.0,WeatherDisplay:10.37,2013-02-26 06:46:00,
2013-02-25 22:51:00,42.6,37.8,30.21,WNW,291,0.0,0.0,83,0.00,,,0.00,0.0,WeatherDisplay:10.37,2013-02-26 06:51:00,
2013-02-25 22:56:00,42.4,37.6,30.20,WNW,291,0.0,0.0,83,0.00,,,0.00,0.0,WeatherDisplay:10.37,2013-02-26 06:56:00,
2013-02-25 23:01:00,42.4,37.9,30.20,WNW,291,0.0,0.0,84,0.00,,,0.00,0.0,WeatherDisplay:10.37,2013-02-26 07:01:00,
2013-02-25 23:06:00,42.3,37.8,30.20,WNW,291,0.0,0.0,84,0.00,,,0.00,0.0,WeatherDisplay:10.37,2013-02-26 07:06:00,
2013-02-25 23:11:00,42.2,37.7,30.20,WNW,291,0.0,0.0,84,0.00,,,0.00,0.0,WeatherDisplay:10.37,2013-02-26 07:11:00,
2013-02-25 23:16:00,42.1,37.6,30.20,WNW,291,0.0,0.0,84,0.00,,,0.00,0.0,WeatherDisplay:10.37,2013-02-26 07:16:00,
2013-02-25 23:21:00,42.0,37.8,30.20,WNW,291,0.0,0.0,85,0.00,,,0.00,0.0,WeatherDisplay:10.37,2013-02-26 07:21:00,
2013-02-25 23:26:00,42.0,37.8,30.19,WNW,291,0.0,0.0,85,0.00,,,0.00,0.0,WeatherDisplay:10.37,2013-02-26 07:26:00,
2013-02-25 23:31:00,41.9,37.7,30.20,WNW,291,0.0,0.0,85,0.00,,,0.00,0.0,WeatherDisplay:10.37,2013-02-26 07:31:00,
2013-02-25 23:36:00,41.8,37.6,30.20,WNW,291,0.0,0.0,85,0.00,,,0.00,0.0,WeatherDisplay:10.37,2013-02-26 07:36:00,
2013-02-25 23:41:00,41.6,37.4,30.19,WNW,291,0.0,0.0,85,0.00,,,0.00,0.0,WeatherDisplay:10.37,2013-02-26 07:41:00,
2013-02-25 23:46:00,41.4,37.2,30.19,WNW,291,0.0,0.0,85,0.00,CLR,,0.00,0.0,WeatherDisplay:10.37,2013-02-26 07:46:00,
2013-02-25 23:51:00,41.2,37.0,30.20,WNW,291,0.0,0.0,85,0.00,CLR,,0.00,0.0,WeatherDisplay:10.37,2013-02-26 07:51:00,
2013-02-25 23:56:00,41.1,36.9,30.20,WNW,291,0.0,0.0,85,0.00,,,0.00,0.0,WeatherDisplay:10.37,2013-02-26 07:56:00,